Time,TemperatureF,DewpointF,PressureIn,WindDirection,WindDirectionDegrees,WindSpeedMPH,WindSpeedGustMPH,Humidity,HourlyPrecipIn,Conditions,Clouds,dailyrainin,SoftwareType,DateUTC
2013-02-09 00:00:00,5.5,2.2,30.42,South,181,0.0,1.0,86,0.00,,,0.00,Wunderground v.1.15,2013-02-09 06:00:00,
2013-02-09 00:06:00,6.9,4.8,30.42,South,181,0.0,1.0,91,0.00,,,0.00,Wunderground v.1.15,2013-02-09 06:06:00,
2013-02-09 00:11:00,7.4,4.8,30.42,South,181,0.0,0.0,89,0.00,,,0.00,Wunderground v.1.15,2013-02-09 06:11:00,
2013-02-09 00:17:00,6.5,3.7,30.42,South,181,1.0,1.0,88,0.00,,,0.00,Wunderground v.1.15,2013-02-09 06:17:00,
2013-02-09 00:22:00,5.5,1.7,30.42,South,180,1.0,1.0,84,0.00,,,0.00,Wunderground v.1.15,2013-02-09 06:22:00,
2013-02-09 00:28:00,4.1,0.0,30.42,South,181,0.0,1.0,84,0.00,,,0.00,weatherlink.com 1.10,2013-02-09 06:28:00,
2013-02-09 00:34:00,3.7,0.4,30.42,South,180,1.0,1.0,86,0.00,,,0.00,Wunderground v.1.15,2013-02-09 06:34:00,
2013-02-09 00:40:00,3.6,0.4,30.42,South,181,1.0,1.0,86,0.00,,,0.00,Wunderground v.1.15,2013-02-09 06:40:00,
2013-02-09 00:46:00,3.6,0.6,30.42,South,181,1.0,1.0,87,0.00,,,0.00,Wunderground v.1.15,2013-02-09 06:46:00,
2013-02-09 00:52:00,3.3,0.1,30.42,South,181,0.0,1.0,86,0.00,,,0.00,Wunderground v.1.15,2013-02-09 06:52:00,
2013-02-09 00:57:00,2.7,-0.5,30.42,South,180,0.0,1.0,86,0.00,,,0.00,Wunderground v.1.15,2013-02-09 06:57:00,
2013-02-09 01:03:00,3.3,0.5,30.42,South,181,0.0,1.0,88,0.00,,,0.00,Wunderground v.1.15,2013-02-09 07:03:00,
2013-02-09 01:08:00,3.5,0.5,30.41,South,181,0.0,1.0,87,0.00,,,0.00,Wunderground v.1.15,2013-02-09 07:08:00,
2013-02-09 01:14:00,2.9,-0.3,30.42,South,181,1.0,1.0,86,0.00,,,0.00,Wunderground v.1.15,2013-02-09 07:14:00,
2013-02-09 01:20:00,3.2,0.0,30.41,South,182,0.0,1.0,86,0.00,,,0.00,Wunderground v.1.15,2013-02-09 07:20:00,
2013-02-09 01:25:00,2.9,-0.1,30.41,South,181,0.0,0.0,87,0.00,,,0.00,Wunderground v.1.15,2013-02-09 07:25:00,
2013-02-09 01:30:00,3.6,1.1,30.42,South,181,1.0,1.0,89,0.00,,,0.00,Wunderground v.1.15,2013-02-09 07:30:00,
2013-02-09 01:36:00,4.3,1.5,30.42,South,181,1.0,2.0,88,0.00,,,0.00,Wunderground v.1.15,2013-02-09 07:36:00,
2013-02-09 01:42:00,6.3,4.2,30.42,South,181,1.0,1.0,91,0.00,,,0.00,Wunderground v.1.15,2013-02-09 07:42:00,
2013-02-09 01:47:00,6.2,3.4,30.42,South,180,2.0,3.0,88,0.00,,,0.00,Wunderground v.1.15,2013-02-09 07:47:00,
2013-02-09 01:53:00,4.9,1.4,30.43,South,181,1.0,1.0,85,0.00,,,0.00,Wunderground v.1.15,2013-02-09 07:53:00,
2013-02-09 01:59:00,4.1,1.0,30.43,South,181,1.0,1.0,85,0.00,,,0.00,weatherlink.com 1.10,2013-02-09 07:59:00,
2013-02-09 02:04:00,3.4,-0.1,30.43,South,181,1.0,1.0,85,0.00,,,0.00,Wunderground v.1.15,2013-02-09 08:04:00,
2013-02-09 02:09:00,3.0,-0.2,30.43,South,181,1.0,1.0,86,0.00,,,0.00,Wunderground v.1.15,2013-02-09 08:09:00,
2013-02-09 02:14:00,5.0,2.9,30.44,South,180,1.0,2.0,91,0.00,,,0.00,Wunderground v.1.15,2013-02-09 08:14:00,
2013-02-09 02:19:00,4.9,2.1,30.43,South,180,1.0,2.0,88,0.00,,,0.00,Wunderground v.1.15,2013-02-09 08:19:00,
2013-02-09 02:24:00,4.0,0.7,30.43,South,181,0.0,1.0,86,0.00,,,0.00,Wunderground v.1.15,2013-02-09 08:24:00,
2013-02-09 02:29:00,3.9,0.6,30.43,South,180,0.0,1.0,86,0.00,,,0.00,Wunderground v.1.15,2013-02-09 08:29:00,
2013-02-09 02:34:00,4.3,1.5,30.43,South,181,1.0,1.0,88,0.00,,,0.00,Wunderground v.1.15,2013-02-09 08:34:00,
2013-02-09 02:39:00,5.0,2.2,30.43,South,181,0.0,1.0,88,0.00,,,0.00,Wunderground v.1.15,2013-02-09 08:39:00,
2013-02-09 02:44:00,4.6,1.6,30.43,South,182,0.0,0.0,87,0.00,,,0.00,Wunderground v.1.15,2013-02-09 08:44:00,
2013-02-09 02:49:00,4.6,1.6,30.42,South,180,0.0,0.0,87,0.00,,,0.00,Wunderground v.1.15,2013-02-09 08:49:00,
2013-02-09 02:54:00,4.9,2.1,30.42,South,181,0.0,0.0,88,0.00,,,0.00,Wunderground v.1.15,2013-02-09 08:54:00,
2013-02-09 02:59:00,5.5,2.5,30.42,South,182,0.0,1.0,87,0.00,,,0.00,Wunderground v.1.15,2013-02-09 08:59:00,
2013-02-09 03:04:00,4.5,1.0,30.42,South,181,0.0,0.0,85,0.00,,,0.00,Wunderground v.1.15,2013-02-09 09:04:00,
2013-02-09 03:09:00,5.5,3.0,30.41,South,181,0.0,0.0,89,0.00,,,0.00,Wunderground v.1.15,2013-02-09 09:09:00,
2013-02-09 03:14:00,5.9,3.4,30.41,South,180,0.0,0.0,89,0.00,,,0.00,Wunderground v.1.15,2013-02-09 09:14:00,
2013-02-09 03:19:00,5.2,1.9,30.41,South,181,0.0,0.0,86,0.00,,,0.00,Wunderground v.1.15,2013-02-09 09:19:00,
2013-02-09 03:24:00,4.3,0.8,30.40,South,181,0.0,0.0,85,0.00,,,0.00,Wunderground v.1.15,2013-02-09 09:24:00,
2013-02-09 03:29:00,3.6,0.1,30.41,South,181,0.0,0.0,85,0.00,,,0.00,Wunderground v.1.15,2013-02-09 09:29:00,
2013-02-09 03:34:00,3.3,0.1,30.41,South,180,0.0,0.0,86,0.00,,,0.00,Wunderground v.1.15,2013-02-09 09:34:00,
2013-02-09 03:39:00,3.2,0.0,30.41,South,181,0.0,0.0,86,0.00,,,0.00,Wunderground v.1.15,2013-02-09 09:39:00,
2013-02-09 03:44:00,3.0,-0.2,30.41,South,181,0.0,0.0,86,0.00,,,0.00,Wunderground v.1.15,2013-02-09 09:44:00,
2013-02-09 03:49:00,2.7,-0.5,30.41,South,182,0.0,0.0,86,0.00,,,0.00,Wunderground v.1.15,2013-02-09 09:49:00,
2013-02-09 03:54:00,2.2,-1.3,30.42,South,181,0.0,1.0,85,0.00,,,0.00,Wunderground v.1.15,2013-02-09 09:54:00,
2013-02-09 03:59:00,2.0,-1.2,30.42,South,181,0.0,1.0,86,0.00,,,0.00,Wunderground v.1.15,2013-02-09 09:59:00,
2013-02-09 04:04:00,2.6,-0.4,30.42,South,182,0.0,0.0,87,0.00,,,0.00,Wunderground v.1.15,2013-02-09 10:04:00,
2013-02-09 04:09:00,3.0,0.0,30.42,South,182,0.0,1.0,87,0.00,,,0.00,Wunderground v.1.15,2013-02-09 10:09:00,
2013-02-09 04:14:00,4.5,2.2,30.42,South,181,0.0,1.0,90,0.00,,,0.00,Wunderground v.1.15,2013-02-09 10:14:00,
2013-02-09 04:19:00,5.4,3.1,30.42,South,181,1.0,1.0,90,0.00,,,0.00,Wunderground v.1.15,2013-02-09 10:19:00,
2013-02-09 04:24:00,6.5,4.4,30.41,South,181,1.0,1.0,91,0.00,,,0.00,Wunderground v.1.15,2013-02-09 10:24:00,
2013-02-09 04:29:00,7.7,5.6,30.41,South,181,0.0,1.0,91,0.00,,,0.00,Wunderground v.1.15,2013-02-09 10:29:00,
2013-02-09 04:34:00,8.1,5.8,30.41,South,180,0.0,2.0,90,0.00,,,0.00,Wunderground v.1.15,2013-02-09 10:34:00,
2013-02-09 04:39:00,9.2,7.1,30.41,South,181,0.0,2.0,91,0.00,,,0.00,Wunderground v.1.15,2013-02-09 10:39:00,
2013-02-09 04:44:00,9.6,7.3,30.41,South,180,0.0,1.0,90,0.00,,,0.00,Wunderground v.1.15,2013-02-09 10:44:00,
2013-02-09 04:49:00,9.9,7.6,30.41,South,181,0.0,1.0,90,0.00,,,0.00,Wunderground v.1.15,2013-02-09 10:49:00,
2013-02-09 04:54:00,8.9,5.6,30.41,South,181,0.0,0.0,86,0.00,,,0.00,Wunderground v.1.15,2013-02-09 10:54:00,
2013-02-09 04:59:00,8.0,4.9,30.41,South,181,0.0,0.0,87,0.00,,,0.00,Wunderground v.1.15,2013-02-09 10:59:00,
2013-02-09 05:04:00,7.4,4.3,30.41,South,180,0.0,0.0,87,0.00,,,0.00,Wunderground v.1.15,2013-02-09 11:04:00,
2013-02-09 05:09:00,8.0,5.4,30.42,South,181,0.0,0.0,89,0.00,,,0.00,Wunderground v.1.15,2013-02-09 11:09:00,
2013-02-09 05:14:00,9.1,7.0,30.41,South,181,0.0,0.0,91,0.00,,,0.00,Wunderground v.1.15,2013-02-09 11:14:00,
2013-02-09 05:19:00,10.4,8.5,30.41,South,180,0.0,0.0,92,0.00,,,0.00,Wunderground v.1.15,2013-02-09 11:19:00,
2013-02-09 05:24:00,11.4,9.5,30.41,South,181,0.0,0.0,92,0.00,,,0.00,Wunderground v.1.15,2013-02-09 11:24:00,
2013-02-09 05:29:00,12.1,10.0,30.41,South,182,0.0,0.0,91,0.00,,,0.00,Wunderground v.1.15,2013-02-09 11:29:00,
2013-02-09 05:34:00,12.5,10.4,30.41,South,181,0.0,0.0,91,0.00,,,0.00,Wunderground v.1.15,2013-02-09 11:34:00,
2013-02-09 05:39:00,12.9,10.8,30.41,South,181,0.0,0.0,91,0.00,,,0.00,Wunderground v.1.15,2013-02-09 11:39:00,
2013-02-09 05:44:00,13.3,11.2,30.41,South,180,0.0,0.0,91,0.00,,,0.00,Wunderground v.1.15,2013-02-09 11:44:00,
2013-02-09 05:49:00,13.6,11.5,30.41,South,181,0.0,0.0,91,0.00,,,0.00,Wunderground v.1.15,2013-02-09 11:49:00,
2013-02-09 05:54:00,13.9,11.8,30.42,South,181,0.0,0.0,91,0.00,,,0.00,Wunderground v.1.15,2013-02-09 11:54:00,
2013-02-09 05:59:00,14.1,12.0,30.42,South,181,0.0,0.0,91,0.00,,,0.00,Wunderground v.1.15,2013-02-09 11:59:00,
2013-02-09 06:04:00,14.5,12.4,30.42,South,180,0.0,0.0,91,0.00,,,0.00,Wunderground v.1.15,2013-02-09 12:04:00,
2013-02-09 06:10:00,14.9,12.7,30.41,South,181,0.0,0.0,91,0.00,,,0.00,Wunderground v.1.15,2013-02-09 12:10:00,
2013-02-09 06:15:00,15.2,13.0,30.42,South,181,0.0,0.0,91,0.00,,,0.00,Wunderground v.1.15,2013-02-09 12:15:00,
2013-02-09 06:20:00,15.3,13.1,30.41,South,181,0.0,0.0,91,0.00,,,0.00,Wunderground v.1.15,2013-02-09 12:20:00,
2013-02-09 06:25:00,15.4,13.2,30.41,South,181,0.0,0.0,91,0.00,,,0.00,Wunderground v.1.15,2013-02-09 12:25:00,
2013-02-09 06:30:00,15.4,13.2,30.41,South,181,0.0,0.0,91,0.00,,,0.00,Wunderground v.1.15,2013-02-09 12:30:00,
2013-02-09 06:35:00,15.4,13.2,30.41,South,181,0.0,0.0,91,0.00,,,0.00,Wunderground v.1.15,2013-02-09 12:35:00,
2013-02-09 06:40:00,15.2,13.0,30.40,South,181,0.0,0.0,91,0.00,,,0.00,Wunderground v.1.15,2013-02-09 12:40:00,
2013-02-09 06:45:00,15.1,12.9,30.40,South,181,0.0,0.0,91,0.00,,,0.00,Wunderground v.1.15,2013-02-09 12:45:00,
2013-02-09 06:50:00,15.0,12.6,30.40,South,181,0.0,0.0,90,0.00,,,0.00,Wunderground v.1.15,2013-02-09 12:50:00,
2013-02-09 06:55:00,14.8,12.4,30.40,South,181,0.0,0.0,90,0.00,,,0.00,Wunderground v.1.15,2013-02-09 12:55:00,
2013-02-09 07:00:00,14.5,12.1,30.40,South,181,0.0,0.0,90,0.00,,,0.00,Wunderground v.1.15,2013-02-09 13:00:00,
2013-02-09 07:05:00,14.3,11.9,30.40,South,181,0.0,0.0,90,0.00,,,0.00,Wunderground v.1.15,2013-02-09 13:05:00,
2013-02-09 07:10:00,14.0,11.6,30.41,South,181,0.0,0.0,90,0.00,,,0.00,Wunderground v.1.15,2013-02-09 13:10:00,
2013-02-09 07:15:00,13.7,11.1,30.41,South,181,0.0,0.0,89,0.00,,,0.00,Wunderground v.1.15,2013-02-09 13:15:00,
2013-02-09 07:20:00,13.3,10.7,30.41,South,181,0.0,0.0,89,0.00,,,0.00,Wunderground v.1.15,2013-02-09 13:20:00,
2013-02-09 07:25:00,12.8,9.9,30.41,South,181,0.0,0.0,88,0.00,,,0.00,Wunderground v.1.15,2013-02-09 13:25:00,
2013-02-09 07:30:00,12.5,9.9,30.41,South,181,0.0,0.0,89,0.00,,,0.00,Wunderground v.1.15,2013-02-09 13:30:00,
2013-02-09 07:35:00,12.5,9.9,30.41,South,181,0.0,0.0,89,0.00,,,0.00,Wunderground v.1.15,2013-02-09 13:35:00,
2013-02-09 07:40:00,12.7,10.3,30.41,South,181,0.0,0.0,90,0.00,,,0.00,Wunderground v.1.15,2013-02-09 13:40:00,
2013-02-09 07:45:00,12.9,10.5,30.41,South,181,0.0,0.0,90,0.00,,,0.00,Wunderground v.1.15,2013-02-09 13:45:00,
2013-02-09 07:50:00,13.0,10.6,30.41,South,181,0.0,0.0,90,0.00,,,0.00,Wunderground v.1.15,2013-02-09 13:50:00,
2013-02-09 07:55:00,13.3,10.9,30.41,South,181,0.0,0.0,90,0.00,,,0.00,Wunderground v.1.15,2013-02-09 13:55:00,
2013-02-09 08:00:00,13.7,11.3,30.41,South,181,0.0,0.0,90,0.00,,,0.00,Wunderground v.1.15,2013-02-09 14:00:00,
2013-02-09 08:05:00,14.0,11.6,30.41,South,181,0.0,0.0,90,0.00,,,0.00,Wunderground v.1.15,2013-02-09 14:05:00,
2013-02-09 08:10:00,14.3,11.9,30.41,South,181,0.0,0.0,90,0.00,,,0.00,Wunderground v.1.15,2013-02-09 14:10:00,
2013-02-09 08:15:00,14.8,12.6,30.41,South,181,0.0,0.0,91,0.00,,,0.00,Wunderground v.1.15,2013-02-09 14:15:00,
2013-02-09 08:20:00,15.5,13.3,30.41,South,181,0.0,0.0,91,0.00,,,0.00,Wunderground v.1.15,2013-02-09 14:20:00,
2013-02-09 08:25:00,16.2,14.3,30.41,South,181,0.0,0.0,92,0.00,,,0.00,Wunderground v.1.15,2013-02-09 14:25:00,
2013-02-09 08:30:00,16.5,14.3,30.40,South,181,0.0,0.0,91,0.00,,,0.00,Wunderground v.1.15,2013-02-09 14:30:00,
2013-02-09 08:35:00,16.8,14.6,30.40,South,181,0.0,0.0,91,0.00,,,0.00,Wunderground v.1.15,2013-02-09 14:35:00,
2013-02-09 08:40:00,17.3,15.1,30.40,South,181,0.0,0.0,91,0.00,,,0.00,Wunderground v.1.15,2013-02-09 14:40:00,
2013-02-09 08:45:00,17.8,15.9,30.40,South,181,0.0,0.0,92,0.00,,,0.00,Wunderground v.1.15,2013-02-09 14:45:00,
2013-02-09 08:50:00,18.1,16.2,30.40,South,181,0.0,0.0,92,0.00,,,0.00,Wunderground v.1.15,2013-02-09 14:50:00,
2013-02-09 08:55:00,18.4,16.5,30.39,South,180,0.0,0.0,92,0.00,,,0.00,Wunderground v.1.15,2013-02-09 14:55:00,
2013-02-09 09:00:00,18.7,16.5,30.39,South,181,0.0,0.0,91,0.00,,,0.00,Wunderground v.1.15,2013-02-09 15:00:00,
2013-02-09 09:05:00,19.1,16.9,30.39,South,181,1.0,1.0,91,0.00,,,0.00,Wunderground v.1.15,2013-02-09 15:05:00,
2013-02-09 09:10:00,19.2,17.0,30.39,South,181,0.0,1.0,91,0.00,,,0.00,Wunderground v.1.15,2013-02-09 15:10:00,
2013-02-09 09:15:00,19.5,17.3,30.39,South,181,0.0,2.0,91,0.00,,,0.00,Wunderground v.1.15,2013-02-09 15:15:00,
2013-02-09 09:20:00,19.9,17.7,30.39,South,181,0.0,2.0,91,0.00,,,0.00,Wunderground v.1.15,2013-02-09 15:20:00,
2013-02-09 09:25:00,20.5,18.3,30.39,South,181,0.0,0.0,91,0.00,,,0.00,Wunderground v.1.15,2013-02-09 15:25:00,
2013-02-09 09:31:00,20.6,18.1,30.39,South,181,0.0,1.0,90,0.00,,,0.00,Wunderground v.1.15,2013-02-09 15:31:00,
2013-02-09 09:36:00,20.3,17.8,30.39,South,180,1.0,2.0,90,0.00,,,0.00,Wunderground v.1.15,2013-02-09 15:36:00,
2013-02-09 09:41:00,21.0,18.8,30.38,South,181,0.0,2.0,91,0.00,,,0.00,Wunderground v.1.15,2013-02-09 15:41:00,
2013-02-09 09:46:00,21.2,19.0,30.38,South,181,0.0,2.0,91,0.00,,,0.00,Wunderground v.1.15,2013-02-09 15:46:00,
2013-02-09 09:51:00,21.4,19.2,30.38,South,181,0.0,2.0,91,0.00,,,0.00,Wunderground v.1.15,2013-02-09 15:51:00,
2013-02-09 09:56:00,21.4,18.9,30.38,South,181,1.0,2.0,90,0.00,,,0.00,Wunderground v.1.15,2013-02-09 15:56:00,
2013-02-09 10:01:00,21.7,19.5,30.38,South,181,1.0,2.0,91,0.00,,,0.00,Wunderground v.1.15,2013-02-09 16:01:00,
2013-02-09 10:06:00,22.2,20.0,30.38,South,181,1.0,3.0,91,0.00,,,0.00,Wunderground v.1.15,2013-02-09 16:06:00,
2013-02-09 10:11:00,22.6,20.4,30.38,South,181,2.0,4.0,91,0.00,,,0.00,Wunderground v.1.15,2013-02-09 16:11:00,
2013-02-09 10:16:00,23.0,21.0,30.38,South,181,3.0,5.0,92,0.00,,,0.00,Wunderground v.1.15,2013-02-09 16:16:00,
2013-02-09 10:21:00,23.2,21.2,30.37,South,181,4.0,5.0,92,0.00,,,0.00,Wunderground v.1.15,2013-02-09 16:21:00,
2013-02-09 10:26:00,23.2,21.0,30.37,South,181,1.0,7.0,91,0.00,,,0.00,Wunderground v.1.15,2013-02-09 16:26:00,
2013-02-09 10:31:00,23.1,20.9,30.37,South,181,3.0,7.0,91,0.00,,,0.00,Wunderground v.1.15,2013-02-09 16:31:00,
2013-02-09 10:36:00,23.3,21.1,30.37,South,181,2.0,5.0,91,0.00,,,0.00,Wunderground v.1.15,2013-02-09 16:36:00,
2013-02-09 10:41:00,23.6,21.4,30.37,South,181,1.0,5.0,91,0.00,,,0.00,Wunderground v.1.15,2013-02-09 16:41:00,
2013-02-09 10:46:00,23.8,21.6,30.37,South,181,1.0,9.0,91,0.00,,,0.00,Wunderground v.1.15,2013-02-09 16:46:00,
2013-02-09 10:51:00,23.9,21.7,30.37,South,181,1.0,9.0,91,0.00,,,0.00,Wunderground v.1.15,2013-02-09 16:51:00,
2013-02-09 10:56:00,24.1,21.9,30.36,South,181,3.0,6.0,91,0.00,,,0.00,Wunderground v.1.15,2013-02-09 16:56:00,
2013-02-09 11:01:00,24.1,21.9,30.36,South,181,1.0,8.0,91,0.00,,,0.00,Wunderground v.1.15,2013-02-09 17:01:00,
2013-02-09 11:06:00,24.2,22.0,30.36,South,181,7.0,7.0,91,0.00,,,0.00,Wunderground v.1.15,2013-02-09 17:06:00,
2013-02-09 11:11:00,24.1,21.6,30.36,South,181,1.0,8.0,90,0.00,,,0.00,Wunderground v.1.15,2013-02-09 17:11:00,
2013-02-09 11:16:00,24.1,21.6,30.35,South,181,2.0,8.0,90,0.00,,,0.00,Wunderground v.1.15,2013-02-09 17:16:00,
2013-02-09 11:21:00,24.3,22.1,30.35,South,181,4.0,8.0,91,0.00,,,0.00,Wunderground v.1.15,2013-02-09 17:21:00,
2013-02-09 11:26:00,24.5,22.2,30.34,South,181,2.0,5.0,91,0.00,,,0.00,Wunderground v.1.15,2013-02-09 17:26:00,
2013-02-09 11:31:00,24.7,22.2,30.34,South,181,3.0,6.0,90,0.00,,,0.00,Wunderground v.1.15,2013-02-09 17:31:00,
2013-02-09 11:36:00,24.7,22.2,30.34,South,181,1.0,7.0,90,0.00,,,0.00,Wunderground v.1.15,2013-02-09 17:36:00,
2013-02-09 11:41:00,24.9,22.4,30.34,South,181,4.0,7.0,90,0.00,,,0.00,Wunderground v.1.15,2013-02-09 17:41:00,
2013-02-09 11:46:00,24.9,22.1,30.34,South,180,0.0,6.0,89,0.00,,,0.00,Wunderground v.1.15,2013-02-09 17:46:00,
2013-02-09 11:51:00,25.0,22.2,30.34,South,181,1.0,3.0,89,0.00,,,0.00,Wunderground v.1.15,2013-02-09 17:51:00,
2013-02-09 11:56:00,25.0,22.2,30.33,South,181,1.0,7.0,89,0.00,,,0.00,Wunderground v.1.15,2013-02-09 17:56:00,
2013-02-09 12:01:00,25.1,22.3,30.33,South,180,4.0,4.0,89,0.00,,,0.00,Wunderground v.1.15,2013-02-09 18:01:00,
2013-02-09 12:06:00,25.3,22.5,30.33,South,181,1.0,5.0,89,0.00,,,0.00,Wunderground v.1.15,2013-02-09 18:06:00,
2013-02-09 12:11:00,25.5,22.7,30.32,South,181,3.0,3.0,89,0.00,,,0.00,Wunderground v.1.15,2013-02-09 18:11:00,
2013-02-09 12:16:00,25.9,23.1,30.32,South,180,3.0,3.0,89,0.00,,,0.00,Wunderground v.1.15,2013-02-09 18:16:00,
2013-02-09 12:21:00,26.1,23.0,30.31,South,181,1.0,1.0,88,0.00,,,0.00,Wunderground v.1.15,2013-02-09 18:21:00,
2013-02-09 12:26:00,26.4,23.1,30.30,South,181,2.0,4.0,87,0.00,,,0.00,Wunderground v.1.15,2013-02-09 18:26:00,
2013-02-09 12:31:00,26.5,23.2,30.30,South,182,5.0,5.0,87,0.00,,,0.00,Wunderground v.1.15,2013-02-09 18:31:00,
2013-02-09 12:36:00,26.7,23.1,30.30,South,181,2.0,6.0,86,0.00,,,0.00,Wunderground v.1.15,2013-02-09 18:36:00,
2013-02-09 12:41:00,26.8,23.2,30.30,South,181,0.0,2.0,86,0.00,,,0.00,Wunderground v.1.15,2013-02-09 18:41:00,
2013-02-09 12:46:00,27.1,23.2,30.30,South,181,4.0,4.0,85,0.00,,,0.00,Wunderground v.1.15,2013-02-09 18:46:00,
2013-02-09 12:51:00,27.2,23.3,30.29,South,181,2.0,2.0,85,0.00,,,0.00,Wunderground v.1.15,2013-02-09 18:51:00,
2013-02-09 12:56:00,27.5,23.3,30.29,South,181,3.0,6.0,84,0.00,,,0.00,Wunderground v.1.15,2013-02-09 18:56:00,
2013-02-09 13:01:00,27.6,23.1,30.29,South,181,3.0,3.0,83,0.00,,,0.00,Wunderground v.1.15,2013-02-09 19:01:00,
2013-02-09 13:06:00,27.5,23.0,30.29,South,181,0.0,6.0,83,0.00,,,0.00,Wunderground v.1.15,2013-02-09 19:06:00,
2013-02-09 13:11:00,27.2,22.4,30.29,South,181,3.0,6.0,82,0.00,,,0.00,Wunderground v.1.15,2013-02-09 19:11:00,
2013-02-09 13:16:00,27.4,23.2,30.29,South,181,3.0,6.0,84,0.00,,,0.00,Wunderground v.1.15,2013-02-09 19:16:00,
2013-02-09 13:21:00,27.5,23.0,30.29,South,181,3.0,6.0,83,0.00,,,0.00,Wunderground v.1.15,2013-02-09 19:21:00,
2013-02-09 13:26:00,27.5,23.0,30.29,South,181,2.0,9.0,83,0.00,,,0.00,Wunderground v.1.15,2013-02-09 19:26:00,
2013-02-09 13:31:00,27.5,23.0,30.29,South,181,1.0,3.0,83,0.00,,,0.00,Wunderground v.1.15,2013-02-09 19:31:00,
2013-02-09 13:36:00,27.8,23.3,30.29,South,181,1.0,4.0,83,0.00,,,0.00,Wunderground v.1.15,2013-02-09 19:36:00,
2013-02-09 13:41:00,28.0,23.2,30.29,South,181,2.0,7.0,82,0.00,,,0.00,Wunderground v.1.15,2013-02-09 19:41:00,
2013-02-09 13:46:00,27.7,23.2,30.29,South,181,1.0,7.0,83,0.00,,,0.00,Wunderground v.1.15,2013-02-09 19:46:00,
2013-02-09 13:51:00,27.7,22.9,30.28,South,180,2.0,3.0,82,0.00,,,0.00,Wunderground v.1.15,2013-02-09 19:51:00,
2013-02-09 13:56:00,27.7,23.2,30.28,South,181,5.0,6.0,83,0.00,,,0.00,Wunderground v.1.15,2013-02-09 19:56:00,
2013-02-09 14:01:00,27.7,22.9,30.28,South,181,1.0,3.0,82,0.00,,,0.00,Wunderground v.1.15,2013-02-09 20:01:00,
2013-02-09 14:06:00,28.0,23.5,30.28,South,181,2.0,4.0,83,0.00,,,0.00,Wunderground v.1.15,2013-02-09 20:06:00,
2013-02-09 14:11:00,28.1,23.3,30.27,South,181,3.0,6.0,82,0.00,,,0.00,Wunderground v.1.15,2013-02-09 20:11:00,
2013-02-09 14:16:00,28.0,23.2,30.27,South,181,1.0,6.0,82,0.00,,,0.00,Wunderground v.1.15,2013-02-09 20:16:00,
2013-02-09 14:21:00,28.0,23.5,30.27,South,181,1.0,4.0,83,0.00,,,0.00,Wunderground v.1.15,2013-02-09 20:21:00,
2013-02-09 14:26:00,28.2,23.7,30.27,South,181,0.0,4.0,83,0.00,,,0.00,Wunderground v.1.15,2013-02-09 20:26:00,
2013-02-09 14:31:00,28.3,23.2,30.27,South,181,2.0,3.0,81,0.00,,,0.00,Wunderground v.1.15,2013-02-09 20:31:00,
2013-02-09 14:36:00,28.3,23.5,30.27,South,181,3.0,6.0,82,0.00,,,0.00,Wunderground v.1.15,2013-02-09 20:36:00,
2013-02-09 14:41:00,28.2,23.1,30.27,South,179,1.0,3.0,81,0.00,,,0.00,Wunderground v.1.15,2013-02-09 20:41:00,
2013-02-09 14:46:00,28.2,23.4,30.27,West,259,2.0,4.0,82,0.00,,,0.00,Wunderground v.1.15,2013-02-09 20:46:00,
2013-02-09 14:51:00,28.1,23.3,30.27,SSE,158,5.0,5.0,82,0.00,,,0.00,Wunderground v.1.15,2013-02-09 20:51:00,
2013-02-09 14:56:00,28.0,23.2,30.27,SW,225,1.0,5.0,82,0.00,,,0.00,Wunderground v.1.15,2013-02-09 20:56:00,
2013-02-09 15:01:00,28.0,23.5,30.27,SSW,210,1.0,3.0,83,0.00,,,0.00,Wunderground v.1.15,2013-02-09 21:01:00,
2013-02-09 15:06:00,28.0,23.5,30.27,SSW,197,2.0,5.0,83,0.00,,,0.00,Wunderground v.1.15,2013-02-09 21:06:00,
2013-02-09 15:11:00,27.8,23.3,30.27,SW,214,1.0,5.0,83,0.00,,,0.00,Wunderground v.1.15,2013-02-09 21:11:00,
2013-02-09 15:16:00,27.9,23.4,30.27,SE,132,1.0,5.0,83,0.00,,,0.00,Wunderground v.1.15,2013-02-09 21:16:00,
2013-02-09 15:21:00,28.1,23.6,30.26,WSW,248,1.0,6.0,83,0.00,,,0.00,Wunderground v.1.15,2013-02-09 21:21:00,
2013-02-09 15:26:00,27.9,23.4,30.26,ESE,118,1.0,8.0,83,0.00,,,0.00,Wunderground v.1.15,2013-02-09 21:26:00,
2013-02-09 15:31:00,27.9,23.4,30.26,SSE,149,1.0,3.0,83,0.00,,,0.00,Wunderground v.1.15,2013-02-09 21:31:00,
2013-02-09 15:36:00,27.9,23.4,30.26,SE,143,1.0,7.0,83,0.00,,,0.00,Wunderground v.1.15,2013-02-09 21:36:00,
2013-02-09 15:41:00,27.7,23.2,30.26,ENE,77,1.0,3.0,83,0.00,,,0.00,Wunderground v.1.15,2013-02-09 21:41:00,
2013-02-09 15:46:00,27.7,23.2,30.26,ENE,77,3.0,6.0,83,0.00,,,0.00,Wunderground v.1.15,2013-02-09 21:46:00,
2013-02-09 15:51:00,27.5,23.3,30.25,SE,131,4.0,4.0,84,0.00,,,0.00,Wunderground v.1.15,2013-02-09 21:51:00,
2013-02-09 15:56:00,27.6,23.4,30.25,SSW,201,2.0,5.0,84,0.00,,,0.00,Wunderground v.1.15,2013-02-09 21:56:00,
2013-02-09 16:01:00,27.7,23.5,30.25,SSE,166,1.0,2.0,84,0.00,,,0.00,Wunderground v.1.15,2013-02-09 22:01:00,
2013-02-09 16:06:00,27.7,23.5,30.25,WSW,248,2.0,6.0,84,0.00,,,0.00,Wunderground v.1.15,2013-02-09 22:06:00,
2013-02-09 16:11:00,27.7,23.5,30.25,SSE,167,2.0,3.0,84,0.00,,,0.00,Wunderground v.1.15,2013-02-09 22:11:00,
2013-02-09 16:16:00,27.7,23.5,30.25,SW,235,2.0,9.0,84,0.00,,,0.00,Wunderground v.1.15,2013-02-09 22:16:00,
2013-02-09 16:21:00,27.7,23.5,30.25,SSE,155,1.0,2.0,84,0.00,,,0.00,Wunderground v.1.15,2013-02-09 22:21:00,
2013-02-09 16:26:00,27.7,23.5,30.25,ESE,103,0.0,4.0,84,0.00,,,0.00,Wunderground v.1.15,2013-02-09 22:26:00,
2013-02-09 16:31:00,27.7,23.8,30.24,SW,228,1.0,2.0,85,0.00,,,0.00,Wunderground v.1.15,2013-02-09 22:31:00,
2013-02-09 16:36:00,27.6,23.7,30.24,WSW,253,1.0,3.0,85,0.00,,,0.00,Wunderground v.1.15,2013-02-09 22:36:00,
2013-02-09 16:41:00,27.6,23.7,30.24,SSW,195,0.0,2.0,85,0.00,,,0.00,Wunderground v.1.15,2013-02-09 22:41:00,
2013-02-09 16:47:00,27.5,23.6,30.24,SW,219,2.0,4.0,85,0.00,,,0.00,Wunderground v.1.15,2013-02-09 22:47:00,
2013-02-09 16:52:00,27.5,23.6,30.23,SW,219,3.0,5.0,85,0.00,,,0.00,Wunderground v.1.15,2013-02-09 22:52:00,
2013-02-09 16:57:00,27.4,23.5,30.23,SSW,203,1.0,5.0,85,0.00,,,0.00,Wunderground v.1.15,2013-02-09 22:57:00,
2013-02-09 17:02:00,27.4,23.5,30.23,SSE,158,1.0,2.0,85,0.00,,,0.00,Wunderground v.1.15,2013-02-09 23:02:00,
2013-02-09 17:07:00,27.4,23.5,30.23,SSW,207,2.0,5.0,85,0.00,,,0.00,Wunderground v.1.15,2013-02-09 23:07:00,
2013-02-09 17:12:00,27.4,23.8,30.23,SE,142,2.0,3.0,86,0.00,,,0.00,Wunderground v.1.15,2013-02-09 23:12:00,
2013-02-09 17:17:00,27.3,23.7,30.23,SSE,157,0.0,4.0,86,0.00,,,0.00,Wunderground v.1.15,2013-02-09 23:17:00,
2013-02-09 17:22:00,27.3,23.7,30.23,SE,130,3.0,3.0,86,0.00,,,0.00,Wunderground v.1.15,2013-02-09 23:22:00,
2013-02-09 17:27:00,27.2,23.6,30.22,SSE,153,1.0,3.0,86,0.00,,,0.00,Wunderground v.1.15,2013-02-09 23:27:00,
2013-02-09 17:32:00,27.1,23.5,30.22,SSW,205,1.0,1.0,86,0.00,,,0.00,Wunderground v.1.15,2013-02-09 23:32:00,
2013-02-09 17:37:00,27.1,23.7,30.22,SSE,155,0.0,4.0,87,0.00,,,0.00,Wunderground v.1.15,2013-02-09 23:37:00,
2013-02-09 17:42:00,27.1,23.7,30.22,SSE,150,1.0,2.0,87,0.00,,,0.00,Wunderground v.1.15,2013-02-09 23:42:00,
2013-02-09 17:47:00,27.1,23.7,30.22,SSW,207,0.0,2.0,87,0.00,,,0.00,Wunderground v.1.15,2013-02-09 23:47:00,
2013-02-09 17:52:00,27.0,23.6,30.22,SSW,205,0.0,0.0,87,0.00,,,0.00,Wunderground v.1.15,2013-02-09 23:52:00,
2013-02-09 17:57:00,27.0,23.6,30.22,SSE,153,1.0,1.0,87,0.00,,,0.00,Wunderground v.1.15,2013-02-09 23:57:00,
2013-02-09 18:02:00,26.9,23.5,30.22,SSW,204,0.0,1.0,87,0.00,,,0.00,Wunderground v.1.15,2013-02-10 00:02:00,
2013-02-09 18:07:00,26.8,23.4,30.22,SE,136,1.0,2.0,87,0.00,,,0.00,Wunderground v.1.15,2013-02-10 00:07:00,
2013-02-09 18:12:00,26.7,23.4,30.21,SE,138,0.0,1.0,87,0.00,,,0.00,Wunderground v.1.15,2013-02-10 00:12:00,
2013-02-09 18:17:00,26.6,23.5,30.21,ESE,122,0.0,2.0,88,0.00,,,0.00,Wunderground v.1.15,2013-02-10 00:17:00,
2013-02-09 18:22:00,26.4,23.3,30.21,SSE,150,0.0,1.0,88,0.00,,,0.00,Wunderground v.1.15,2013-02-10 00:22:00,
2013-02-09 18:27:00,26.3,23.2,30.21,SSE,151,0.0,1.0,88,0.00,,,0.00,Wunderground v.1.15,2013-02-10 00:27:00,
2013-02-09 18:32:00,26.1,23.0,30.21,SSE,150,0.0,0.0,88,0.00,,,0.00,Wunderground v.1.15,2013-02-10 00:32:00,
2013-02-09 18:37:00,26.0,23.2,30.21,East,89,0.0,1.0,89,0.00,,,0.00,Wunderground v.1.15,2013-02-10 00:37:00,
2013-02-09 18:42:00,26.1,23.3,30.21,East,93,1.0,1.0,89,0.00,,,0.00,Wunderground v.1.15,2013-02-10 00:42:00,
2013-02-09 18:47:00,26.0,23.2,30.21,SE,139,0.0,2.0,89,0.00,,,0.00,Wunderground v.1.15,2013-02-10 00:47:00,
2013-02-09 18:52:00,25.9,23.1,30.21,East,92,0.0,1.0,89,0.00,,,0.00,Wunderground v.1.15,2013-02-10 00:52:00,
2013-02-09 18:57:00,25.9,23.1,30.20,East,86,1.0,2.0,89,0.00,,,0.00,Wunderground v.1.15,2013-02-10 00:57:00,
2013-02-09 19:02:00,26.0,23.5,30.21,ESE,121,1.0,3.0,90,0.00,,,0.00,Wunderground v.1.15,2013-02-10 01:02:00,
2013-02-09 19:07:00,26.0,23.5,30.20,SE,129,0.0,3.0,90,0.00,,,0.00,Wunderground v.1.15,2013-02-10 01:07:00,
2013-02-09 19:12:00,26.1,23.6,30.20,ESE,116,1.0,2.0,90,0.00,,,0.00,Wunderground v.1.15,2013-02-10 01:12:00,
2013-02-09 19:17:00,26.1,23.6,30.20,SE,135,0.0,2.0,90,0.00,,,0.00,Wunderground v.1.15,2013-02-10 01:17:00,
2013-02-09 19:22:00,26.1,23.6,30.20,SE,140,0.0,2.0,90,0.00,,,0.00,Wunderground v.1.15,2013-02-10 01:22:00,
2013-02-09 19:27:00,26.1,23.6,30.20,SE,136,1.0,3.0,90,0.00,,,0.00,Wunderground v.1.15,2013-02-10 01:27:00,
2013-02-09 19:32:00,26.0,23.5,30.20,ESE,121,0.0,1.0,90,0.00,,,0.00,Wunderground v.1.15,2013-02-10 01:32:00,
2013-02-09 19:37:00,25.8,23.3,30.20,SE,129,0.0,2.0,90,0.00,,,0.00,Wunderground v.1.15,2013-02-10 01:37:00,
2013-02-09 19:42:00,25.7,23.2,30.20,ENE,67,1.0,1.0,90,0.00,,,0.00,Wunderground v.1.15,2013-02-10 01:42:00,
2013-02-09 19:47:00,25.6,23.1,30.19,SE,129,0.0,2.0,90,0.00,,,0.00,Wunderground v.1.15,2013-02-10 01:47:00,
2013-02-09 19:52:00,25.5,23.0,30.19,ENE,77,0.0,1.0,90,0.00,,,0.00,Wunderground v.1.15,2013-02-10 01:52:00,
2013-02-09 19:57:00,25.4,22.9,30.19,East,90,0.0,3.0,90,0.00,,,0.00,Wunderground v.1.15,2013-02-10 01:57:00,
2013-02-09 20:02:00,25.3,22.8,30.19,East,81,0.0,3.0,90,0.00,,,0.00,Wunderground v.1.15,2013-02-10 02:02:00,
2013-02-09 20:07:00,25.2,22.7,30.19,SE,136,2.0,3.0,90,0.00,,,0.00,Wunderground v.1.15,2013-02-10 02:07:00,
2013-02-09 20:12:00,25.2,22.9,30.19,SE,125,0.0,1.0,91,0.00,,,0.00,Wunderground v.1.15,2013-02-10 02:12:00,
2013-02-09 20:17:00,25.2,22.9,30.19,East,87,2.0,2.0,91,0.00,,,0.00,Wunderground v.1.15,2013-02-10 02:17:00,
2013-02-09 20:22:00,25.2,22.9,30.19,South,177,0.0,1.0,91,0.00,,,0.00,Wunderground v.1.15,2013-02-10 02:22:00,
2013-02-09 20:27:00,25.0,22.7,30.19,SE,130,0.0,1.0,91,0.00,,,0.00,Wunderground v.1.15,2013-02-10 02:27:00,
2013-02-09 20:32:00,24.9,22.6,30.19,East,97,0.0,1.0,91,0.00,,,0.00,Wunderground v.1.15,2013-02-10 02:32:00,
2013-02-09 20:37:00,24.9,22.6,30.19,ESE,121,0.0,1.0,91,0.00,,,0.00,Wunderground v.1.15,2013-02-10 02:37:00,
2013-02-09 20:42:00,24.8,22.5,30.19,ESE,122,0.0,0.0,91,0.00,,,0.00,Wunderground v.1.15,2013-02-10 02:42:00,
2013-02-09 20:47:00,24.7,22.4,30.19,ESE,121,0.0,1.0,91,0.00,,,0.00,Wunderground v.1.15,2013-02-10 02:47:00,
2013-02-09 20:52:00,24.7,22.7,30.18,ESE,121,0.0,1.0,92,0.00,,,0.00,Wunderground v.1.15,2013-02-10 02:52:00,
2013-02-09 20:57:00,24.6,22.6,30.19,ESE,121,0.0,1.0,92,0.00,,,0.00,Wunderground v.1.15,2013-02-10 02:57:00,
2013-02-09 21:02:00,24.5,22.5,30.19,ESE,122,0.0,0.0,92,0.00,,,0.00,Wunderground v.1.15,2013-02-10 03:02:00,
2013-02-09 21:07:00,24.5,22.5,30.19,ESE,121,0.0,1.0,92,0.00,,,0.00,Wunderground v.1.15,2013-02-10 03:07:00,
2013-02-09 21:12:00,24.5,22.5,30.18,ESE,121,0.0,0.0,92,0.00,,,0.00,Wunderground v.1.15,2013-02-10 03:12:00,
2013-02-09 21:17:00,24.6,22.6,30.18,ESE,122,0.0,1.0,92,0.00,,,0.00,Wunderground v.1.15,2013-02-10 03:17:00,
2013-02-09 21:22:00,24.6,22.6,30.18,ESE,122,0.0,0.0,92,0.00,,,0.00,Wunderground v.1.15,2013-02-10 03:22:00,
2013-02-09 21:27:00,24.6,22.6,30.18,ESE,121,0.0,1.0,92,0.00,,,0.00,Wunderground v.1.15,2013-02-10 03:27:00,
2013-02-09 21:32:00,24.3,22.3,30.18,ESE,120,0.0,0.0,92,0.00,,,0.00,Wunderground v.1.15,2013-02-10 03:32:00,
2013-02-09 21:37:00,24.1,22.1,30.17,ESE,118,0.0,1.0,92,0.00,,,0.00,Wunderground v.1.15,2013-02-10 03:37:00,
2013-02-09 21:42:00,24.1,22.1,30.17,ESE,118,0.0,0.0,92,0.00,,,0.00,Wunderground v.1.15,2013-02-10 03:42:00,
2013-02-09 21:47:00,24.3,22.6,30.17,ESE,119,0.0,0.0,93,0.00,,,0.00,Wunderground v.1.15,2013-02-10 03:47:00,
2013-02-09 21:52:00,24.2,22.2,30.17,ESE,119,0.0,0.0,92,0.00,,,0.00,Wunderground v.1.15,2013-02-10 03:52:00,
2013-02-09 21:57:00,24.1,22.1,30.17,ESE,118,0.0,0.0,92,0.00,,,0.00,Wunderground v.1.15,2013-02-10 03:57:00,
2013-02-09 22:02:00,23.9,21.9,30.17,ESE,118,0.0,0.0,92,0.00,,,0.00,Wunderground v.1.15,2013-02-10 04:02:00,
2013-02-09 22:07:00,23.8,21.8,30.16,ESE,118,0.0,1.0,92,0.00,,,0.00,Wunderground v.1.15,2013-02-10 04:07:00,
2013-02-09 22:12:00,23.9,21.9,30.16,ENE,60,1.0,2.0,92,0.00,,,0.00,Wunderground v.1.15,2013-02-10 04:12:00,
2013-02-09 22:17:00,23.7,21.7,30.16,NE,54,2.0,3.0,92,0.00,,,0.00,Wunderground v.1.15,2013-02-10 04:17:00,
2013-02-09 22:22:00,23.6,21.6,30.16,ENE,68,1.0,2.0,92,0.00,,,0.00,Wunderground v.1.15,2013-02-10 04:22:00,
2013-02-09 22:27:00,23.5,21.5,30.15,ENE,63,1.0,2.0,92,0.00,,,0.00,Wunderground v.1.15,2013-02-10 04:27:00,
2013-02-09 22:32:00,23.5,21.5,30.15,ENE,63,1.0,2.0,92,0.00,,,0.00,Wunderground v.1.15,2013-02-10 04:32:00,
2013-02-09 22:37:00,23.5,21.5,30.15,ENE,72,1.0,2.0,92,0.00,,,0.00,Wunderground v.1.15,2013-02-10 04:37:00,
2013-02-09 22:42:00,23.6,21.9,30.15,East,80,0.0,2.0,93,0.00,,,0.00,Wunderground v.1.15,2013-02-10 04:42:00,
2013-02-09 22:48:00,23.6,21.6,30.15,ENE,73,1.0,2.0,92,0.00,,,0.00,Wunderground v.1.15,2013-02-10 04:48:00,
2013-02-09 22:52:00,23.6,21.6,30.15,ENE,65,2.0,2.0,92,0.00,,,0.00,Wunderground v.1.15,2013-02-10 04:52:00,
2013-02-09 22:57:00,23.7,21.7,30.15,East,82,1.0,3.0,92,0.00,,,0.00,Wunderground v.1.15,2013-02-10 04:57:00,
2013-02-09 23:00:00,23.7,21.7,30.15,ENE,71,2.0,3.0,92,0.00,,,0.00,Wunderground v.1.15,2013-02-10 05:00:00,
2013-02-09 23:05:00,24.0,22.3,30.14,ENE,77,2.0,4.0,93,0.00,,,0.00,Wunderground v.1.15,2013-02-10 05:05:00,
2013-02-09 23:10:00,24.1,22.1,30.14,ENE,67,2.0,4.0,92,0.00,,,0.00,Wunderground v.1.15,2013-02-10 05:10:00,
2013-02-09 23:15:00,24.3,22.6,30.14,ENE,70,3.0,3.0,93,0.00,,,0.00,Wunderground v.1.15,2013-02-10 05:15:00,
2013-02-09 23:20:00,24.6,22.9,30.14,ENE,61,2.0,4.0,93,0.00,,,0.00,Wunderground v.1.15,2013-02-10 05:20:00,
2013-02-09 23:25:00,24.8,22.8,30.14,ENE,65,2.0,3.0,92,0.00,,,0.00,Wunderground v.1.15,2013-02-10 05:25:00,
2013-02-09 23:30:00,24.7,22.7,30.14,ENE,64,2.0,3.0,92,0.00,,,0.00,Wunderground v.1.15,2013-02-10 05:30:00,
2013-02-09 23:35:00,24.6,22.6,30.13,ENE,64,1.0,3.0,92,0.00,,,0.00,Wunderground v.1.15,2013-02-10 05:35:00,
2013-02-09 23:40:00,24.6,22.6,30.13,ENE,63,0.0,3.0,92,0.00,,,0.00,Wunderground v.1.15,2013-02-10 05:40:00,
2013-02-09 23:45:00,24.3,22.3,30.13,ENE,65,0.0,2.0,92,0.00,,,0.00,Wunderground v.1.15,2013-02-10 05:45:00,
2013-02-09 23:50:00,24.3,22.3,30.13,East,79,1.0,2.0,92,0.00,,,0.00,Wunderground v.1.15,2013-02-10 05:50:00,
2013-02-09 23:55:00,24.2,22.2,30.13,ENE,68,1.0,3.0,92,0.00,,,0.00,Wunderground v.1.15,2013-02-10 05:55:00,